SCP
1 0 0 0 1 1 1 1 1 1 1 1 1 1 1 0 0 0 0 0 0 0 0 0 0 0 0 0 0 0 0 0 0 0 0 0 0 0 0 0 0 0 0
1 1 0 0 1 1 1 1 1 1 1 1 1 1 1 0 0 0 0 0 0 0 0 0 0 0 0 0 0 0 0 0 0 0 0 0 0 0 0 0 0 0 0
1 1 0 0 1 1 1 1 1 1 1 1 1 1 1 0 0 0 0 0 0 0 0 0 0 0 0 0 0 0 0 0 0 0 0 0 0 0 0 0 0 0 0
1 1 0 0 1 1 1 1 1 1 1 1 1 1 1 1 0 0 0 0 0 0 0 0 0 0 0 0 0 0 0 0 0 0 0 0 0 0 0 0 0 0 0
0 0 0 0 0 0 1 1 1 1 1 1 1 1 1 0 0 0 0 0 0 0 0 0 0 0 0 0 0 0 0 0 0 0 0 0 0 0 0 0 0 0 0
0 0 0 0 0 0 0 0 0 1 1 1 1 1 0 0 0 0 0 0 0 0 0 0 0 0 0 0 0 0 0 0 0 0 0 0 0 0 0 0 0 0 0
0 0 0 0 0 0 0 0 0 0 0 0 0 0 0 0 0 0 0 0 0 0 0 0 0 0 0 0 0 0 0 0 0 0 0 0 0 0 0 0 0 0 0
0 0 0 0 0 0 0 0 0 0 0 0 0 0 0 0 0 0 0 0 0 0 0 0 0 0 0 0 0 0 0 0 0 0 0 0 0 0 0 0 0 0 0
0 0 0 0 0 0 0 0 0 0 0 0 0 0 0 0 0 0 0 0 0 0 0 0 0 0 0 0 0 0 0 0 0 0 0 0 0 0 0 0 0 0 0
0 0 0 0 0 0 0 0 0 0 0 0 0 0 0 0 0 0 0 0 0 0 0 0 0 0 0 0 0 0 0 0 0 0 0 0 0 0 0 0 0 0 0
0 0 0 0 0 0 0 0 0 0 0 0 0 0 0 0 0 0 0 0 0 0 0 0 0 0 0 0 0 0 0 0 0 0 0 0 0 0 0 0 0 0 0
0 0 0 0 0 0 0 0 0 0 0 0 0 0 0 0 0 0 0 0 0 0 0 0 0 0 0 0 0 0 0 0 0 0 0 0 0 0 0 0 0 0 0
0 0 0 0 0 0 0 0 0 0 0 0 0 0 0 0 0 0 0 0 0 0 0 0 0 0 0 0 0 0 0 0 0 0 0 0 0 0 0 0 0 0 0
0 0 0 0 0 0 0 0 0 0 0 0 0 0 0 0 0 0 0 0 0 0 0 0 0 0 0 0 0 0 0 0 0 0 0 0 0 0 0 0 0 0 0
0 0 0 0 0 0 0 0 0 0 0 0 0 0 0 0 0 0 0 0 0 0 0 0 0 0 0 0 0 0 0 0 0 0 0 0 0 0 0 0 0 0 0
0 0 0 0 0 0 0 0 0 0 0 0 0 0 0 0 0 0 0 0 0 0 0 0 0 0 0 0 0 0 0 0 0 0 0 0 0 0 0 0 0 0 0
0 0 0 0 0 0 0 0 0 0 0 0 0 0 0 0 0 0 -0 -0 -0 -0 0 0 0 0 0 0 0 0 0 0 0 0 0 0 0 0 0 0 0 0 0
0 0 0 0 0 0 0 0 0 0 0 0 0 0 -0 -0 0 0 0 0 0 0 0 0 0 0 0 0 0 0 0 0 0 0 0 0 0 0 0 0 0 0 0
0 0 0 0 0 0 0 0 0 0 0 0 0 0 0 0 0 0 0 0 0 0 0 0 0 0 0 0 0 0 0 0 0 0 0 0 0 0 0 0 0 0 0
0 0 0 0 0 0 0 0 0 0 0 0 0 0 0 0 0 0 0 0 0 0 0 0 0 0 0 0 0 0 0 0 0 0 0 0 0 0 0 0 0 0 0
0 0 0 0 0 0 0 0 0 0 0 0 0 0 0 0 0 0 0 0 0 0 0 0 0 0 0 0 0 0 0 0 0 0 0 0 0 0 0 0 0 0 0
0 0 0 0 0 0 0 0 0 0 0 0 0 0 0 0 0 0 0 0 0 0 0 0 0 0 0 0 0 0 0 0 0 0 0 0 0 0 0 0 0 0 0
0 0 0 0 0 0 0 0 0 0 0 0 0 0 0 0 0 0 0 0 0 0 0 0 0 0 0 0 0 0 0 0 0 0 0 0 0 0 0 0 0 0 0
0 0 0 0 0 0 0 0 0 0 0 0 0 0 0 0 0 0 0 0 0 0 0 0 0 0 0 0 0 0 0 0 0 0 0 0 0 0 0 0 0 0 0
0 0 0 0 0 0 0 0 0 0 0 0 0 0 0 0 0 0 0 0 0 0 -0 0 0 0 0 0 0 0 0 0 0 0 0 0 0 0 0 0 0 0 0
0 0 0 0 0 0 0 0 0 0 0 0 0 0 -0 0 0 0 0 0 0 0 0 0 0 0 0 0 0 0 0 0 0 0 0 0 0 0 0 0 0 0 0
Wind_Speed
4 3 3 5 5 5 7 8 9 8 7 6 6 5 3 3 3 3 3 4 4 4 5 4 3 3 3 4 5 3 4 3 1 2 2 2 4 4 3 3 3 3 3
2 3 3 3 2 2 2 4 6 7 7 6 4 4 4 4 3 3 4 4 4 3 3 4 3 3 3 4 4 3 3 2 1 2 2 1 1 2 4 3 3 4 3
4 4 4 3 4 3 2 2 4 5 6 7 6 6 4 4 3 4 3 4 5 5 4 5 4 4 4 3 3 3 4 3 2 2 2 3 3 1 2 3 3 3 3
8 7 6 6 6 4 3 3 3 4 5 6 7 8 6 5 4 4 4 5 6 6 6 6 6 5 4 4 3 3 2 4 3 2 3 3 2 2 2 1 2 3 5
10 10 9 9 8 7 5 5 5 5 5 5 6 7 6 5 6 7 7 6 6 7 7 7 7 7 6 6 6 5 5 3 3 2 2 3 3 3 2 1 1 2 3
11 11 11 11 10 10 9 8 8 7 6 6 6 7 9 9 9 8 7 6 5 6 7 8 7 7 7 7 6 7 8 6 6 5 3 2 2 2 2 2 0 1 1
11 12 13 12 12 12 11 10 10 10 9 10 10 9 9 9 9 8 7 7 6 5 7 7 7 7 7 7 7 8 8 7 7 6 4 4 3 2 2 2 1 1 1
12 13 12 12 11 12 12 12 12 11 11 11 11 10 10 8 8 9 8 8 6 6 7 8 9 9 8 9 8 7 7 7 7 7 5 4 4 2 2 1 1 0 1
12 12 12 12 13 13 14 13 13 13 13 12 13 13 12 11 11 11 10 8 7 7 9 10 10 10 9 9 8 7 7 6 6 6 5 4 3 3 2 2 1 1 1
11 12 12 12 12 13 13 13 14 14 13 12 12 12 12 12 11 11 11 10 10 9 10 10 10 10 9 8 8 7 6 7 5 3 4 3 2 2 2 1 1 1 1
9 10 10 11 12 12 12 12 13 14 13 13 13 13 12 12 12 11 11 10 10 9 10 9 9 9 9 7 7 7 6 6 5 4 4 3 2 1 1 1 0 1 2
9 9 10 10 11 12 12 12 12 13 12 11 12 13 12 11 12 11 10 10 10 9 9 9 9 9 8 7 7 7 6 5 5 4 3 3 2 1 0 1 1 2 3
9 9 10 10 11 11 11 12 11 11 11 11 12 12 12 11 11 10 9 9 9 9 8 8 8 7 7 7 6 6 5 4 4 3 3 3 2 2 2 2 2 2 2
9 10 10 9 10 10 10 11 10 10 10 11 11 11 10 10 9 8 8 8 8 8 7 7 6 6 6 6 5 5 5 5 4 4 4 4 3 3 3 2 2 2 3
10 10 9 9 9 10 10 10 9 9 9 10 10 9 8 8 8 7 7 7 6 6 5 5 5 4 4 4 5 4 5 5 5 6 6 6 6 6 4 3 3 3 4
10 10 10 9 9 9 8 8 8 7 8 8 8 7 7 7 7 6 6 6 6 5 4 4 3 3 3 4 6 5 4 5 5 6 7 7 6 9 8 8 8 8 7
10 10 9 8 7 7 7 7 6 6 7 7 6 6 6 6 6 6 5 5 4 3 3 2 2 2 3 5 5 6 3 4 5 5 6 6 6 8 6 8 12 12 13
10 9 8 8 7 6 6 6 6 6 6 6 5 5 5 5 4 4 4 3 2 2 2 2 2 2 4 5 5 6 4 4 5 5 6 6 8 7 8 8 9 10 10
9 8 7 7 6 6 5 6 6 5 5 5 4 4 4 4 3 3 2 2 2 2 2 2 2 2 4 6 6 5 4 5 7 7 7 7 8 10 11 9 9 11 10
8 8 7 7 6 5 5 7 6 5 4 3 3 3 3 3 2 2 2 2 1 2 2 3 3 3 3 6 7 6 3 5 7 8 8 9 9 11 12 8 8 10 10
8 8 7 6 5 4 6 6 5 4 3 3 3 3 2 2 1 2 1 2 2 3 3 3 3 3 4 5 7 7 3 4 6 7 7 8 12 14 14 10 7 9 10
8 7 7 6 4 4 5 5 3 2 2 3 3 2 1 1 2 2 2 2 2 3 3 3 3 3 4 5 6 9 8 7 5 7 7 8 14 16 14 9 8 11 9
6 5 6 5 4 3 4 4 2 2 3 3 2 1 2 2 2 1 1 2 2 2 2 2 3 3 4 4 7 9 10 11 6 6 12 14 14 13 9 9 11 8 4
5 5 5 5 3 2 2 2 2 2 3 2 1 1 1 1 2 1 1 1 1 1 1 2 2 3 4 4 5 6 7 9 8 7 10 12 10 7 7 7 6 4 4
4 4 4 4 2 2 1 1 1 3 2 1 0 1 1 1 1 1 1 0 1 1 1 1 1 2 4 6 9 7 6 7 7 8 5 5 6 7 7 7 7 6 5
4 4 4 3 2 1 0 0 1 2 2 0 1 1 1 0 1 1 1 3 1 1 1 2 2 3 5 9 11 11 11 11 10 5 4 5 6 6 7 7 7 6 6
Wind_Direction
179 138 156 172 177 175 181 185 184 179 169 169 170 163 159 133 124 119 118 128 139 149 146 142 137 134 140 143 133 116 101 76 69 93 63 37 43 52 40 29 35 34 28
93 85 83 90 110 147 173 179 179 176 174 173 161 135 124 115 103 89 81 86 97 103 123 126 121 117 117 117 123 127 118 87 41 126 130 136 16 32 31 32 46 43 37
62 53 53 58 74 75 91 160 168 166 159 148 129 117 108 97 98 97 86 67 82 83 84 93 102 101 106 115 109 121 137 136 84 40 152 166 193 136 29 28 37 42 47
47 48 41 37 43 50 61 78 109 131 140 144 151 150 151 144 125 105 90 72 66 75 79 86 89 87 84 90 87 80 103 124 125 78 46 60 98 143 127 26 19 42 50
46 46 42 42 39 35 49 73 89 92 100 121 141 140 128 116 110 105 98 83 66 64 70 78 84 85 81 78 73 70 68 77 101 102 94 76 58 54 120 139 7 23 39
46 45 43 43 39 35 41 52 67 68 76 89 96 107 115 118 117 109 103 89 76 65 64 72 75 77 79 76 76 75 74 73 79 76 69 84 90 75 85 116 94 346 9
48 45 43 42 39 37 40 47 57 59 62 71 73 84 96 103 106 107 99 94 83 73 64 69 72 72 74 74 73 74 73 73 78 78 73 67 63 69 87 102 101 332 333
54 52 47 45 45 43 44 48 55 57 59 67 71 72 78 82 86 89 92 87 83 77 75 72 69 68 69 72 71 72 70 71 74 75 73 70 55 50 68 106 125 341 316
54 54 51 49 49 48 47 50 58 60 59 64 72 72 72 78 83 82 81 80 79 79 74 74 72 68 66 68 70 71 69 72 71 75 77 74 57 51 53 69 107 160 276
57 55 53 54 53 53 52 54 59 64 64 65 71 77 75 76 79 81 80 79 77 77 76 72 72 69 66 67 70 69 65 71 64 71 75 71 66 59 57 67 85 143 199
63 59 57 57 60 60 58 59 62 65 65 66 69 73 73 74 74 75 77 79 76 74 77 77 76 72 67 64 68 66 60 63 55 48 56 53 55 61 58 88 148 188 199
76 70 65 62 60 60 59 59 60 65 66 68 72 72 71 73 76 75 74 78 78 76 78 78 76 73 68 61 61 58 51 50 45 33 31 22 18 9 317 242 235 228 217
87 79 71 67 65 64 64 64 63 65 66 69 71 72 70 70 72 74 75 77 80 79 78 80 78 74 70 64 59 58 51 43 31 18 10 350 342 321 294 272 263 258 250
91 86 80 75 74 73 73 71 67 66 70 70 70 69 70 71 72 74 76 78 82 83 80 80 80 75 69 63 56 52 43 31 21 10 358 339 314 292 289 284 280 277 280
96 91 89 84 80 77 74 74 73 69 72 74 74 73 73 76 76 74 74 77 80 84 81 79 70 61 60 54 53 44 34 21 9 1 353 337 335 338 320 307 290 282 288
104 99 94 89 85 84 83 80 78 75 78 80 80 79 78 75 73 72 72 70 68 66 64 59 53 40 35 37 44 47 29 14 3 350 342 333 338 340 336 328 319 307 299
113 108 100 92 88 86 89 88 86 85 82 82 82 80 77 75 72 76 73 69 60 55 50 36 31 14 354 10 20 31 31 4 350 339 333 330 330 334 323 318 316 308 298
112 108 104 98 91 89 90 91 89 88 87 86 84 83 85 84 82 81 74 62 48 36 12 359 358 353 348 2 7 11 11 346 335 329 318 313 313 316 322 316 308 303 298
107 104 103 103 99 97 101 98 90 88 89 91 92 94 98 95 86 76 57 37 31 16 357 349 358 356 345 360 6 8 347 334 329 323 317 312 306 307 316 314 307 306 305
103 103 100 96 92 91 100 99 96 94 94 98 100 98 99 100 94 75 52 32 27 13 13 26 19 12 357 2 10 12 350 331 326 322 318 314 308 307 311 309 300 300 305
102 101 97 93 93 101 103 100 100 101 100 99 98 90 88 97 98 70 49 40 45 44 36 31 19 15 3 356 1 3 350 327 321 318 318 316 316 314 312 307 286 280 292
102 102 100 94 89 99 106 105 106 111 102 97 88 69 52 37 85 80 55 49 58 50 28 15 5 356 349 350 346 346 340 330 312 307 310 309 311 313 314 312 302 303 302
104 104 108 100 85 94 114 119 136 128 108 91 68 35 32 42 60 85 79 61 52 48 22 12 356 341 337 335 339 338 334 333 322 303 306 310 312 315 316 315 318 321 319
109 110 107 103 92 89 109 139 150 130 113 95 60 20 28 28 38 52 87 112 96 51 15 357 343 332 329 334 340 337 332 333 332 324 317 317 317 323 318 320 330 334 322
108 110 113 113 106 89 79 101 133 130 123 113 25 3 20 16 39 51 43 70 214 209 215 282 294 319 328 321 322 322 323 323 317 319 321 337 343 347 345 342 338 336 341
115 115 117 123 131 137 162 261 160 152 154 219 290 308 332 3 77 83 37 30 28 348 270 253 267 281 286 308 322 329 328 328 330 336 340 340 342 340 338 337 334 333 339